AirNav  
 
 1066 users online  

61NC Southern Comforts Aerodrome
Parkton, North Carolina, USA

GOING TO PARKTON?


FAA INFORMATION EFFECTIVE 25 MARCH 2021

Location

FAA Identifier: 61NC
Lat/Long: 34-52-16.5900N 078-57-56.1040W
34-52.276500N 078-57.935067W
34.8712750,-78.9655844
(estimated)
Elevation: 175 ft. / 53 m (estimated)
Variation: 07W (1985)
From city: 3 miles SE of PARKTON, NC
Time zone: UTC -4 (UTC -5 during Standard Time)
Zip code: 28371

Airport Operations

Airport use: Private use. Permission required prior to landing
Activation date: 06/1976
Control tower: no
ARTCC: WASHINGTON CENTER
FSS: RALEIGH FLIGHT SERVICE STATION
Attendance: DAYLIGHT HOURS
Wind indicator: yes
Segmented circle: no

Airport Communications

UNICOM: 122.8
WX ASOS at FAY (8 nm NE): 121.25 (910-484-1546)
WX ASOS at LBT (16 nm S): 134.775 (910-671-1906)

Nearby radio navigation aids

VOR radial/distance  VOR name  Freq  Var
FAYr217/8.2FAYETTEVILLE VOR/DME108.8004W
SDZr127/36.9SANDHILLS VORTAC111.8003W

 
NDB name  Hdg/Dist  Freq  Var  ID
ROBESON025/16.135908WRSY .-. ... -.--
FORT BRAGG212/17.739307WFGP ..-. --. .--.
POPE188/21.333807WPOB .--. --- -...
MACKALL116/27.227806WHFF .... ..-. ..-.
ELIZABETHTOWN321/30.239808WTGQ - --. --.-
CLINTON267/30.341209WCTZ -.-. - --..
DILLON047/32.227409WDLC -.. .-.. -.-.
HARNETT211/36.641708WHQT .... --.- -
CAMP348/38.022707WCPC -.-. .--. -.-.

Airport Services

Fuel available: 100LL
Airframe service: MAJOR
Powerplant service: MAJOR

Runway Information

Runway 1/19

Dimensions: 4000 x 200 ft. / 1219 x 61 m
Surface: turf
RUNWAY 1  RUNWAY 19
Traffic pattern: leftleft
Obstructions: 30 ft. trees30 ft. trees

Airport Ownership and Management from official FAA records

Ownership: Privately-owned
Owner: WILLIAM K. JOHNSON/WALTER MC GILL
391 LITTLE MARSH RD
PARKTON, NC 28371
Phone 910-858-2206
MR. MC GILL RESIDES IN CALIFORNIA AND IS MR. JOHNSON'S UNCLE.
Manager: WILLIAM K. JOHNSON
391 LITTLE MARSH RD
PARKTON, NC 28371
Phone 910-858-2206

Airport Operational Statistics

Aircraft based on the field: 37
Single engine airplanes: 37
    

Additional Remarks

PUBLIC PROVIDED WITH REPAIR SERVICES.
FOR CD CTC WASHINGTON ARTCC AT 703-771-3587.

Instrument Procedures

There are no published instrument procedures at 61NC.

Some nearby airports with instrument procedures:

KFAY - Fayetteville Regional Airport/Grannis Field (8 nm NE)
5W4 - P K Airpark (14 nm NW)
KFBG - Simmons Army Airfield (16 nm N)
KLBT - Lumberton Regional Airport (16 nm S)
KPOB - Pope Army Airfield (18 nm N)
 
Loc | Ops | Rwys | IFR | FBO | Links
Com | Nav | Svcs | Stats | Notes
Area around 61NC (Southern Comforts Aerodrome)
 
Road maps at: MapQuest Bing Google
 
Aerial photo
No photo
 
Sectional chart

 
Airport distance calculator
Flying to Southern Comforts Aerodrome? Find the distance to fly.

From to 61NC

Sunrise and sunset
Times for 10-Apr-2021
 Local
(UTC-4)
 Zulu
(UTC)
Morning civil twilight06:2610:26
Sunrise06:5210:52
Sunset19:4323:43
Evening civil twilight20:0900:09

Current date and time
Zulu (UTC)  10-Apr-2021 19:01:03
Local (UTC-4)  10-Apr-2021 15:01:03
 
METAR
KFAY 
8nm NE 
101853Z 16014KT 10SM SCT038 SCT046 BKN070 26/16 A2985 RMK AO2 SLP101 T02560161
KFBG 
15nm N 
101831Z AUTO 16006KT 10SM SCT037 SCT049 BKN060 25/17 A2984 RMK AO2 SLP106 $
KPOB 
18nm N 
101836Z AUTO 19009KT 10SM FEW036 SCT047 26/16 A2984 RMK AO2 SLP106 $
TAF
KFAY 
8nm NE 
101725Z 1018/1118 18010G16KT P6SM BKN040 BKN100 FM102300 17012G22KT P6SM OVC100 FM110300 20012G22KT P6SM VCTS SCT020 BKN050CB TEMPO 1104/1107 2SM -TSRA BKN015CB FM110900 23010KT P6SM OVC010 FM111200 22006KT P6SM SCT015
KFBG 
15nm N 
100900Z 1009/1115 VRB06KT 9999 FEW020 BKN030 QNH2995INS BECMG 1015/1016 20010G15KT 9999 FEW025 BKN060 QNH2994INS BECMG 1101/1102 17012G18KT 8000 -SHRA VCTS BKN030CB OVC045 QNH2989INS TEMPO 1103/1106 17012KT 6000 -TSRA SCT005 BKN015CB TX26/1021Z TN15/1012Z
KLBT 
17nm S 
101720Z 1018/1118 17011KT P6SM BKN070 FM110200 19011KT 5SM -SHRA VCTS BKN040CB TEMPO 1103/1106 2SM +SHRA BKN025 AMD NOT SKED
KPOB 
18nm N 
101700Z 1017/1123 21010G15KT 9999 SCT025 BKN040 BKN080 BKN120 QNH2975INS BECMG 1020/1021 22012G19KT 8000 -SHRA VCTS SCT012 BKN025CB BKN040 OVC080 QNH2965INS TEMPO 1022/1103 23015G25KT 4800 -TSRA SCT005 BKN012 BKN025CB OVC040 BECMG 1105/1106 24009KT 4800 BR BKN005 OVC012 QNH2960INS BECMG 1114/1115 24010G15KT 9999 NSW SCT005 BKN012 OVC025 QNH2965INS BECMG 1118/1119 24015G25KT 8000 -SHRA VCTS SCT025 BKN040CB QNH2960INS TX28/1020Z TN15/1111Z
NOTAMs
Click for the latest NOTAMs
NOTAMs are issued by the DoD/FAA and will open in a separate window not controlled by AirNav.

 

 
 

Would you like to see your business listed on this page?

 If your business provides an interesting product or service to pilots, flight crews, aircraft, or users of the Southern Comforts Aerodrome, you should consider listing it here.  To start the listing process, click on the button below
 
Add a business
 

Other Pages about Southern Comforts Aerodrome

users.aol.com/...
 
Update a link
 
Copyright © AirNav, LLC. All rights reserved. Privacy Policy  Contact